GW5350 Weather Reports


time (UTC)temp
C
wind
direction
speed
KPH
gust
KPH
rain 1hr
cm
rain 24hr
cm
rain mn
cm
humidity
%
barometer
mb
20260509034313 30 80 1.6 1.6 0.00 0.00 0.00 69 985.0
20260509033811 30 150 1.6 1.6 0.00 0.00 0.00 68 985.0
20260509033311 29 120 0.0 0.0 0.00 0.00 0.00 71 985.0
20260509032812 29 34 1.6 3.2 0.00 0.00 0.00 71 985.0
20260509032311 28 125 0.0 0.0 0.00 0.00 0.00 73 985.0
20260509031811 28 126 0.0 0.0 0.00 0.00 0.00 75 985.0
20260509031311 28 31 1.6 3.2 0.00 0.00 0.00 75 985.0
20260509030812 28 129 1.6 1.6 0.00 0.00 0.00 74 985.0
20260509030311 28 113 0.0 0.0 0.00 0.00 0.00 76 985.0
20260509025811 27 114 0.0 0.0 0.00 0.00 0.00 77 985.0
20260509025311 28 104 0.0 1.6 0.00 0.00 0.00 77 985.0
20260509024811 27 122 0.0 0.0 0.00 0.00 0.00 78 985.0
20260509024320 27 104 0.0 0.0 0.00 0.00 0.00 79 985.0
20260509023811 27 121 0.0 0.0 0.00 0.00 0.00 80 985.0
20260509023311 27 150 0.0 0.0 0.00 0.00 0.00 81 985.0
20260509022811 27 61 3.2 3.2 0.00 0.00 0.00 82 985.0
20260509022311 27 110 0.0 1.6 0.00 0.00 0.00 82 984.0
20260509021811 27 104 0.0 0.0 0.00 0.00 0.00 81 985.0
20260509021311 27 96 0.0 0.0 0.00 0.00 0.00 82 984.0
20260509020811 26 89 0.0 1.6 0.00 0.00 0.00 83 984.0
20260509020312 26 21 1.6 3.2 0.00 0.00 0.00 83 984.0
20260509015811 26 118 0.0 1.6 0.00 0.00 0.00 84 984.0
20260509015311 26 106 1.6 3.2 0.00 0.00 0.00 84 984.0
20260509014811 26 85 1.6 1.6 0.00 0.00 0.00 84 984.0
20260509014312 26 118 0.0 0.0 0.00 0.00 0.00 85 984.0
20260509013811 26 150 1.6 3.2 0.00 0.00 0.00 85 984.0
20260509013311 26 141 1.6 1.6 0.00 0.00 0.00 85 984.0
20260509012811 26 127 1.6 1.6 0.00 0.00 0.00 86 984.0
20260509012311 26 112 0.0 0.0 0.00 0.00 0.00 87 984.0
20260509011811 25 118 0.0 0.0 0.00 0.00 0.00 87 984.0
20260509011312 25 128 0.0 0.0 0.00 0.00 0.00 87 984.0
20260509010811 25 119 0.0 0.0 0.00 0.00 0.00 88 984.0
20260509010312 25 129 0.0 0.0 0.00 0.00 0.00 88 984.0
20260509005811 25 124 0.0 0.0 0.00 0.00 0.00 88 984.0
20260509005311 25 120 0.0 0.0 0.00 0.00 0.00 88 983.0
20260509004811 25 120 0.0 0.0 0.00 0.00 0.00 89 983.0
20260509004311 25 105 0.0 0.0 0.00 0.00 0.00 89 984.0
20260509003811 25 103 0.0 0.0 0.00 0.00 0.00 88 984.0
20260509003311 25 111 0.0 0.0 0.00 0.00 0.00 88 984.0
20260509002811 25 111 0.0 0.0 0.00 0.00 0.00 88 984.0
20260508164311 26 82 4.8 4.8 0.00 0.00 0.18 84 985.0
20260508163812 26 113 0.0 1.6 0.00 0.00 0.18 84 985.0
20260508163311 26 79 1.6 3.2 0.00 0.00 0.18 84 985.0
20260508162811 26 104 0.0 0.0 0.00 0.00 0.18 84 985.0
20260508162311 26 110 4.8 9.7 0.00 0.00 0.18 83 985.0
20260508161813 26 58 6.4 6.4 0.00 0.00 0.18 83 985.0
20260508161313 26 90 1.6 3.2 0.00 0.00 0.18 84 985.0
20260508160811 26 132 0.0 1.6 0.00 0.00 0.18 84 985.0
20260508160314 26 59 3.2 3.2 0.00 0.00 0.18 84 985.0
20260508155812 26 119 0.0 0.0 0.00 0.00 0.18 85 985.0
20260508155312 26 48 0.0 3.2 0.00 0.00 0.18 85 985.0
20260508154812 26 74 1.6 3.2 0.00 0.00 0.18 85 985.0
20260508154312 26 106 1.6 1.6 0.00 0.00 0.18 85 984.0
20260508153811 26 128 9.7 12.9 0.00 0.00 0.18 85 984.0
20260508153312 26 62 6.4 6.4 0.00 0.00 0.18 85 984.0
20260508152811 26 39 6.4 11.3 0.00 0.00 0.18 85 984.0
20260508152312 26 46 8.0 11.3 0.00 0.00 0.18 85 984.0
20260508151812 26 91 6.4 11.3 0.00 0.00 0.18 86 984.0
20260508151311 26 51 4.8 6.4 0.00 0.00 0.18 86 984.0
20260508150812 26 41 4.8 4.8 0.13 0.00 0.18 86 984.0
20260508150311 26 59 8.0 9.7 0.13 0.00 0.18 86 984.0
20260508145812 26 69 6.4 9.7 0.00 0.00 0.15 86 984.0
20260508145311 26 93 8.0 11.3 0.00 0.00 0.15 87 984.0
20260508144811 26 83 4.8 9.7 0.18 0.00 0.15 86 984.0
20260508144311 26 44 6.4 9.7 0.18 0.00 0.15 86 984.0
20260508143811 26 132 3.2 3.2 0.18 0.00 0.15 86 984.0
20260508143312 26 62 8.0 12.9 0.18 0.00 0.13 86 984.0
20260508142812 26 42 8.0 14.5 0.18 0.00 0.13 85 984.0
20260508142311 26 144 8.0 11.3 0.30 0.00 0.13 85 984.0
20260508141812 26 156 6.4 9.7 0.13 0.00 0.10 84 984.0
20260508141311 26 59 6.4 9.7 0.00 0.00 0.08 84 984.0
20260508140811 26 61 4.8 4.8 0.00 0.00 0.08 84 984.0
20260508140312 26 102 6.4 6.4 0.00 0.00 0.08 83 984.0
20260508135812 26 81 4.8 6.4 0.00 0.00 0.08 83 984.0
20260508135311 26 52 3.2 4.8 0.18 0.00 0.08 84 983.0
20260508134813 26 66 4.8 6.4 0.18 0.00 0.08 83 983.0
20260508134313 26 37 9.7 11.3 0.00 0.00 0.05 84 983.0
20260508133813 26 143 6.4 9.7 0.00 0.00 0.05 84 983.0
20260508133311 26 60 11.3 12.9 0.13 0.00 0.05 83 983.0
20260508132812 26 121 6.4 9.7 0.13 0.00 0.05 83 983.0
20260508132311 26 55 8.0 9.7 0.00 0.00 0.03 82 983.0
20260508131811 26 102 6.4 11.3 0.18 0.00 0.03 81 983.0
20260508131311 26 89 6.4 6.4 0.18 0.00 0.03 80 983.0
20260508130811 26 31 4.8 9.7 0.00 0.00 0.00 79 983.0
20260508130312 26 92 6.4 11.3 0.00 0.00 0.00 78 983.0
20260508125811 26 88 9.7 12.9 0.00 0.00 0.00 78 982.0
20260508125312 26 71 8.0 12.9 0.00 0.00 0.00 78 982.0
20260508124811 26 33 6.4 9.7 0.00 0.00 0.00 78 982.0
20260508124311 26 62 9.7 12.9 0.00 0.00 0.00 77 982.0
20260508123813 26 76 8.0 9.7 0.00 0.00 0.00 78 982.0
20260508123312 26 24 9.7 14.5 0.00 0.00 0.00 77 982.0
20260508122812 26 58 6.4 9.7 0.00 0.00 0.00 77 982.0
20260508122311 27 126 1.6 3.2 0.00 0.00 0.00 76 982.0
20260508121811 27 142 6.4 6.4 0.00 0.00 0.00 75 982.0
20260508121311 27 121 6.4 12.9 0.00 0.00 0.00 75 982.0
20260508120811 27 87 6.4 9.7 0.00 0.00 0.00 75 982.0
20260508120311 27 57 8.0 11.3 0.00 0.00 0.00 75 982.0
20260508115811 27 32 3.2 4.8 0.00 0.00 0.00 75 982.0
20260508115311 27 109 8.0 14.5 0.00 0.00 0.00 75 982.0
20260508114811 27 42 12.9 14.5 0.00 0.00 0.00 75 982.0
20260508114311 27 50 8.0 12.9 0.00 0.00 0.00 76 982.0
20260508113812 27 67 6.4 11.3 0.00 0.00 0.00 76 982.0
20260508113311 27 89 3.2 4.8 0.00 0.00 0.00 73 982.0
20260508112811 27 147 9.7 14.5 0.00 0.00 0.00 73 981.0
20260508112311 28 227 6.4 9.7 0.00 0.00 0.00 73 981.0
20260508111811 28 57 6.4 9.7 0.00 0.00 0.00 73 981.0
20260508111311 28 152 6.4 9.7 0.00 0.00 0.00 73 981.0
20260508110811 28 126 9.7 14.5 0.00 0.00 0.00 73 980.0
20260508110311 28 81 16.1 24.1 0.00 0.00 0.00 72 981.0
20260508105812 30 192 12.9 16.1 0.00 0.00 0.00 70 981.0
20260508105313 30 102 8.0 11.3 0.00 0.00 0.00 69 981.0
20260508104811 30 140 3.2 3.2 0.00 0.00 0.00 68 980.0
20260508104311 30 239 4.8 4.8 0.00 0.00 0.00 68 980.0
20260508103814 30 148 3.2 4.8 0.00 0.00 0.00 68 980.0
20260508103311 30 174 4.8 9.7 0.00 0.00 0.00 69 980.0
20260508102811 30 128 4.8 9.7 0.00 0.00 0.00 70 980.0
20260508102312 30 109 3.2 4.8 0.00 0.00 0.00 69 980.0
20260508101812 30 112 1.6 3.2 0.00 0.00 0.00 67 980.0
20260508101311 31 125 0.0 0.0 0.00 0.00 0.00 67 980.0
20260508100812 31 137 0.0 1.6 0.00 0.00 0.00 67 980.0
20260508100311 31 152 1.6 1.6 0.00 0.00 0.00 67 980.0
20260508095811 30 292 1.6 3.2 0.00 0.00 0.00 67 980.0
20260508095311 30 165 3.2 3.2 0.00 0.00 0.00 67 980.0
20260508094812 30 133 4.8 4.8 0.00 0.00 0.00 67 980.0
20260508094311 31 230 3.2 4.8 0.00 0.00 0.00 67 980.0
20260508093811 31 146 4.8 6.4 0.00 0.00 0.00 65 980.0
20260508093311 31 159 3.2 6.4 0.00 0.00 0.00 66 980.0
20260508092811 31 349 4.8 11.3 0.00 0.00 0.00 66 980.0
20260508092313 32 214 8.0 11.3 0.00 0.00 0.00 64 980.0
20260508091811 33 140 3.2 3.2 0.00 0.00 0.00 60 980.0
20260508091311 33 151 3.2 4.8 0.00 0.00 0.00 60 981.0
20260508090812 33 133 1.6 3.2 0.00 0.00 0.00 61 981.0
20260508090311 33 139 3.2 3.2 0.00 0.00 0.00 61 981.0
20260508085811 33 154 6.4 9.7 0.00 0.00 0.00 61 981.0
20260508085311 33 121 1.6 3.2 0.00 0.00 0.00 61 981.0
20260508084812 32 155 3.2 4.8 0.00 0.00 0.00 62 981.0
20260508084311 32 141 6.4 6.4 0.00 0.00 0.00 62 981.0
20260508083812 33 126 1.6 1.6 0.00 0.00 0.00 61 981.0
20260508083312 33 112 6.4 11.3 0.00 0.00 0.00 61 981.0
20260508082811 33 96 4.8 6.4 0.00 0.00 0.00 61 982.0
20260508082311 33 121 6.4 11.3 0.00 0.00 0.00 62 981.0
20260508081814 33 105 1.6 1.6 0.00 0.00 0.00 60 982.0
20260508081311 33 163 3.2 3.2 0.00 0.00 0.00 60 982.0
20260508080811 33 143 1.6 1.6 0.00 0.00 0.00 59 982.0
20260508080311 33 125 3.2 4.8 0.00 0.00 0.00 59 982.0
20260508075812 33 109 3.2 4.8 0.00 0.00 0.00 59 982.0
20260508075311 34 83 3.2 3.2 0.00 0.00 0.00 58 982.0
20260508074812 34 35 0.0 1.6 0.00 0.00 0.00 58 982.0
20260508074311 35 356 1.6 3.2 0.00 0.00 0.00 57 982.0
20260508073812 35 143 0.0 0.0 0.00 0.00 0.00 57 982.0
20260508073311 34 113 0.0 0.0 0.00 0.00 0.00 59 982.0
20260508072812 35 182 1.6 1.6 0.00 0.00 0.00 57 982.0
20260508072312 34 132 0.0 1.6 0.00 0.00 0.00 58 982.0
20260508071812 34 122 1.6 3.2 0.00 0.00 0.00 58 982.0
20260508071313 34 209 1.6 3.2 0.00 0.00 0.00 59 982.0
20260508070812 34 352 1.6 1.6 0.00 0.00 0.00 59 983.0
20260508070313 33 169 1.6 1.6 0.00 0.00 0.00 61 983.0
20260508065811 33 136 3.2 4.8 0.00 0.00 0.00 60 983.0
20260508065312 34 111 1.6 3.2 0.00 0.00 0.00 59 983.0
20260508064812 35 260 3.2 4.8 0.00 0.00 0.00 59 983.0
20260508063812 35 2 3.2 3.2 0.00 0.00 0.00 60 983.0
20260508063311 34 182 1.6 1.6 0.00 0.00 0.00 59 983.0
20260508062811 34 197 3.2 4.8 0.00 0.00 0.00 60 983.0
20260508062314 33 115 1.6 1.6 0.00 0.00 0.00 61 983.0
20260508061812 33 124 0.0 0.0 0.00 0.00 0.00 61 983.0
20260508061312 32 136 3.2 3.2 0.00 0.00 0.00 62 984.0
20260508054811 32 129 0.0 1.6 0.00 0.00 0.00 58 984.0
20260508054311 32 103 0.0 1.6 0.00 0.00 0.00 59 984.0
20260508053811 32 154 1.6 3.2 0.00 0.00 0.00 60 984.0
20260508053312 32 163 1.6 3.2 0.00 0.00 0.00 58 984.0
20260508052811 33 96 1.6 1.6 0.00 0.00 0.00 57 984.0
20260508052311 33 128 1.6 1.6 0.00 0.00 0.00 56 984.0
20260508051812 32 117 0.0 0.0 0.00 0.00 0.00 58 984.0
20260508051311 31 129 0.0 1.6 0.00 0.00 0.00 61 984.0
20260508050811 31 158 3.2 4.8 0.00 0.00 0.00 63 984.0
20260508050311 32 127 0.0 0.0 0.00 0.00 0.00 61 985.0
20260508045811 31 131 1.6 1.6 0.00 0.00 0.00 62 985.0
20260508045311 31 110 1.6 1.6 0.00 0.00 0.00 62 985.0
20260508044812 30 74 4.8 6.4 0.00 0.00 0.00 64 984.0
20260508044311 32 43 4.8 6.4 0.00 0.00 0.00 61 985.0
20260508043811 32 323 4.8 6.4 0.00 0.00 0.00 59 985.0
20260508043311 31 105 4.8 4.8 0.00 0.00 0.00 61 985.0
20260508042811 30 320 4.8 4.8 0.00 0.00 0.00 64 985.0
20260508042311 30 100 1.6 1.6 0.00 0.00 0.00 66 985.0
20260508041811 31 163 1.6 1.6 0.00 0.00 0.00 64 985.0
20260508041311 30 113 0.0 1.6 0.00 0.00 0.00 67 985.0
20260508040811 29 120 1.6 1.6 0.00 0.00 0.00 68 985.0
20260508040311 29 124 1.6 1.6 0.00 0.00 0.00 70 985.0
20260508035812 28 21 3.2 4.8 0.00 0.00 0.00 71 985.0
20260508035311 28 33 9.7 11.3 0.00 0.00 0.00 71 985.0
20260508034811 28 325 8.0 9.7 0.00 0.00 0.00 73 985.0